When you browse on this site, cookies collect data to enhance your experience and personalize the content and advertising you see.
Visit our Privacy Policy to learn more. By continuing to use the site, you agree to this use of cookies and data.
  • En España
  • Lista de países
  • Para 7 días
  • Temperatura del agua
  • Mapa Satelital
  • El tiempo en el mapa
  • Informadores
  • user-avatar
    Iniciar sesión

    Tiempo cada hora Al-Hasaka

    Hoy, 25 Abril, Jueves

    Tiempo Temperatura Precipitaciones Viento Presión Humedad
    00:00 +17°C° 0 mm 2 mps 738 mmHg 43%
    01:00 +16°C° 0 mm 2 mps 737 mmHg 44%
    02:00 +16°C° 0 mm 2 mps 737 mmHg 46%
    03:00 +14°C° 0 mm 3 mps 737 mmHg 48%
    04:00 +15°C° 0 mm 2 mps 737 mmHg 49%
    05:00 +14°C° 0 mm 2 mps 737 mmHg 49%
    06:00 +14°C° 0 mm 2 mps 737 mmHg 50%
    07:00 +16°C° 0 mm 2 mps 737 mmHg 45%
    08:00 +17°C° 0 mm 2 mps 737 mmHg 40%
    09:00 +19°C° 0 mm 3 mps 737 mmHg 35%
    10:00 +20°C° 0 mm 2 mps 737 mmHg 32%
    11:00 +21°C° 0 mm 2 mps 737 mmHg 29%
    12:00 +23°C° 0 mm 2 mps 737 mmHg 26%
    13:00 +24°C° 0 mm 3 mps 737 mmHg 24%
    14:00 +24°C° 0 mm 3 mps 736 mmHg 23%
    15:00 +25°C° 0 mm 3 mps 736 mmHg 21%
    16:00 +24°C° 0 mm 3 mps 736 mmHg 23%
    17:00 +24°C° 0 mm 3 mps 736 mmHg 24%
    18:00 +23°C° 0 mm 4 mps 736 mmHg 26%
    19:00 +21°C° 0 mm 3 mps 736 mmHg 29%
    20:00 +20°C° 0 mm 3 mps 736 mmHg 32%
    21:00 +19°C° 0 mm 3 mps 736 mmHg 35%
    22:00 +18°C° 0 mm 3 mps 736 mmHg 36%
    23:00 +18°C° 0 mm 3 mps 736 mmHg 38%

    Mañana, 26 Abril, Viernes

    Tiempo Temperatura Precipitaciones Viento Presión Humedad
    00:00 +17°C° 0 mm 2 mps 736 mmHg 39%
    01:00 +16°C° 0 mm 2 mps 736 mmHg 40%
    02:00 +16°C° 0 mm 2 mps 735 mmHg 40%
    03:00 +15°C° 0 mm 2 mps 735 mmHg 40%
    04:00 +15°C° 0 mm 2 mps 735 mmHg 42%
    05:00 +15°C° 0 mm 2 mps 735 mmHg 43%
    06:00 +14°C° 0 mm 2 mps 735 mmHg 45%
    07:00 +16°C° 0 mm 2 mps 735 mmHg 41%
    08:00 +17°C° 0 mm 2 mps 735 mmHg 38%
    09:00 +19°C° 0 mm 2 mps 736 mmHg 34%
    10:00 +20°C° 0 mm 2 mps 736 mmHg 31%
    11:00 +23°C° 0 mm 1 mps 736 mmHg 27%
    12:00 +24°C° 0 mm 1 mps 735 mmHg 24%
    13:00 +24°C° 0 mm 1 mps 735 mmHg 22%
    14:00 +25°C° 0 mm 1 mps 735 mmHg 20%
    15:00 +25°C° 0 mm 1 mps 734 mmHg 17%
    16:00 +25°C° 0 mm 1 mps 734 mmHg 19%
    17:00 +25°C° 0 mm 1 mps 734 mmHg 20%
    18:00 +25°C° 0 mm 2 mps 734 mmHg 22%
    19:00 +24°C° 0 mm 1 mps 734 mmHg 25%
    20:00 +23°C° 0 mm 1 mps 734 mmHg 28%
    21:00 +21°C° 0 mm 1 mps 734 mmHg 31%
    22:00 +21°C° 0 mm 1 mps 734 mmHg 33%
    23:00 +20°C° 0 mm 1 mps 734 mmHg 35%

    Pasado mañana, 27 Abril, Sábado

    Tiempo Temperatura Precipitaciones Viento Presión Humedad
    00:00 +19°C° 0 mm 1 mps 734 mmHg 37%
    01:00 +19°C° 0 mm 1 mps 734 mmHg 38%
    02:00 +18°C° 0 mm 2 mps 734 mmHg 39%
    03:00 +17°C° 0 mm 2 mps 734 mmHg 39%
    04:00 +17°C° 0 mm 2 mps 734 mmHg 41%
    05:00 +16°C° 0 mm 2 mps 734 mmHg 43%
    06:00 +16°C° 0 mm 2 mps 734 mmHg 45%
    07:00 +18°C° 0 mm 1 mps 734 mmHg 40%
    08:00 +20°C° 0 mm 1 mps 734 mmHg 36%
    09:00 +22°C° 0 mm 1 mps 735 mmHg 31%
    10:00 +23°C° 0 mm 1 mps 735 mmHg 28%
    11:00 +22°C° 0 mm 0 mps 735 mmHg 24%
    12:00 +23°C° 0 mm 0 mps 735 mmHg 21%
    13:00 +24°C° 0 mm 0 mps 735 mmHg 20%
    14:00 +24°C° 0 mm 0 mps 734 mmHg 19%
    15:00 +27°C° 0 mm 1 mps 734 mmHg 17%
    16:00 +26°C° 0 mm 1 mps 734 mmHg 19%
    17:00 +26°C° 0 mm 1 mps 734 mmHg 21%
    18:00 +26°C° 0 mm 2 mps 733 mmHg 23%
    19:00 +25°C° 0 mm 2 mps 734 mmHg 25%
    20:00 +24°C° 0 mm 2 mps 734 mmHg 28%
    21:00 +23°C° 0 mm 2 mps 734 mmHg 30%
    22:00 +21°C° 0 mm 2 mps 734 mmHg 32%
    23:00 +21°C° 0 mm 2 mps 734 mmHg 34%

    28 Abril, Domingo

    Tiempo Temperatura Precipitaciones Viento Presión Humedad
    00:00 +20°C° 0 mm 2 mps 734 mmHg 36%
    01:00 +20°C° 0 mm 2 mps 733 mmHg 37%
    02:00 +20°C° 0 mm 1 mps 733 mmHg 38%
    03:00 +20°C° 0 mm 1 mps 733 mmHg 39%
    04:00 +19°C° 0 mm 1 mps 733 mmHg 41%
    05:00 +19°C° 0 mm 1 mps 733 mmHg 43%
    06:00 +19°C° 0 mm 1 mps 733 mmHg 45%
    07:00 +20°C° 0 mm 1 mps 733 mmHg 40%
    08:00 +22°C° 0 mm 1 mps 734 mmHg 35%
    09:00 +24°C° 0 mm 1 mps 734 mmHg 30%
    10:00 +25°C° 0 mm 1 mps 734 mmHg 27%
    11:00 +26°C° 0 mm 1 mps 734 mmHg 24%
    12:00 +27°C° 0 mm 1 mps 734 mmHg 22%
    13:00 +28°C° 0 mm 2 mps 733 mmHg 21%
    14:00 +29°C° 0 mm 2 mps 733 mmHg 20%
    15:00 +29°C° 0 mm 3 mps 733 mmHg 20%
    16:00 +29°C° 0 mm 2 mps 732 mmHg 21%
    17:00 +29°C° 0 mm 2 mps 732 mmHg 22%
    18:00 +29°C° 0 mm 1 mps 732 mmHg 23%
    19:00 +28°C° 0 mm 2 mps 732 mmHg 26%
    20:00 +26°C° 0 mm 2 mps 732 mmHg 29%
    21:00 +25°C° 0 mm 3 mps 733 mmHg 32%
    22:00 +24°C° 0 mm 3 mps 733 mmHg 33%
    23:00 +24°C° 0 mm 3 mps 733 mmHg 35%

    29 Abril, Lunes

    Tiempo Temperatura Precipitaciones Viento Presión Humedad
    00:00 +22°C° 0 mm 3 mps 732 mmHg 37%
    01:00 +22°C° 0 mm 3 mps 732 mmHg 37%
    02:00 +22°C° 0 mm 3 mps 732 mmHg 37%
    03:00 +21°C° 0 mm 3 mps 732 mmHg 37%
    04:00 +21°C° 0 mm 3 mps 732 mmHg 38%
    05:00 +21°C° 0 mm 4 mps 732 mmHg 39%
    06:00 +21°C° 0 mm 5 mps 732 mmHg 40%
    07:00 +23°C° 0.2 mm 6 mps 732 mmHg 36%
    08:00 +24°C° 0.2 mm 7 mps 733 mmHg 32%
    09:00 +27°C° 0.2 mm 8 mps 733 mmHg 28%
    10:00 +27°C° 0.6 mm 8 mps 733 mmHg 29%
    11:00 +28°C° 0.6 mm 7 mps 732 mmHg 30%
    12:00 +29°C° 0.6 mm 7 mps 732 mmHg 31%
    13:00 +30°C° 0 mm 6 mps 732 mmHg 28%
    14:00 +32°C° 0 mm 5 mps 731 mmHg 25%
    15:00 +33°C° 0 mm 4 mps 731 mmHg 23%
    16:00 +32°C° 0 mm 4 mps 730 mmHg 24%
    17:00 +31°C° 0 mm 3 mps 730 mmHg 25%
    18:00 +30°C° 0 mm 3 mps 730 mmHg 26%
    19:00 +29°C° 0 mm 3 mps 730 mmHg 29%
    20:00 +27°C° 0 mm 3 mps 731 mmHg 33%
    21:00 +26°C° 0 mm 3 mps 731 mmHg 37%
    22:00 +25°C° 0 mm 3 mps 731 mmHg 41%
    23:00 +24°C° 0 mm 3 mps 731 mmHg 45%

    30 Abril, Martes

    Tiempo Temperatura Precipitaciones Viento Presión Humedad
    00:00 +22°C° 0 mm 3 mps 731 mmHg 49%
    01:00 +21°C° 0 mm 3 mps 731 mmHg 52%
    02:00 +20°C° 0 mm 3 mps 731 mmHg 55%
    03:00 +20°C° 0 mm 3 mps 731 mmHg 58%
    04:00 +19°C° 0 mm 3 mps 731 mmHg 59%
    05:00 +19°C° 0 mm 2 mps 731 mmHg 60%
    06:00 +19°C° 0 mm 2 mps 732 mmHg 61%
    07:00 +20°C° 0 mm 2 mps 732 mmHg 55%
    08:00 +23°C° 0 mm 2 mps 732 mmHg 50%
    09:00 +25°C° 0 mm 2 mps 732 mmHg 44%
    10:00 +26°C° 0 mm 2 mps 732 mmHg 40%
    11:00 +28°C° 0 mm 2 mps 732 mmHg 35%
    12:00 +29°C° 0 mm 1 mps 732 mmHg 30%
    13:00 +30°C° 0 mm 1 mps 731 mmHg 27%
    14:00 +31°C° 0 mm 1 mps 731 mmHg 24%
    15:00 +31°C° 0 mm 1 mps 730 mmHg 21%
    16:00 +31°C° 0 mm 1 mps 730 mmHg 22%
    17:00 +31°C° 0 mm 1 mps 730 mmHg 23%
    18:00 +31°C° 0 mm 1 mps 730 mmHg 24%
    19:00 +30°C° 0 mm 1 mps 730 mmHg 27%
    20:00 +28°C° 0 mm 2 mps 730 mmHg 30%
    21:00 +27°C° 0 mm 2 mps 730 mmHg 33%
    22:00 +26°C° 0 mm 2 mps 730 mmHg 36%
    23:00 +25°C° 0 mm 2 mps 730 mmHg 39%
    Mostrar más